Weather History for Bolton Field, OH

Change the Weather History Date:

Tuesday, April 9, 2013

  Actual Average Record
Temperature  
Mean Temperature 19 °C -  
Max Temperature 28 °C 16 °C 28 °C (2001)
Min Temperature 11 °C 5 °C -7 °C (1997)
Cooling Degree Days 2    
Growing Degree Days 16 (Base 50)    
Moisture  
Dew Point 12 °C    
Average Humidity 71    
Maximum Humidity 97    
Minimum Humidity 42    
Precipitation  
Precipitation 0.00 mm - - ()
Sea Level Pressure  
Sea Level Pressure 1016 hPa    
Wind  
Wind Speed 13 km/h (SSW)    
Max Wind Speed 39 km/h    
Max Gust Speed 53 km/h    
Visibility 16 kilometers    
Events      
Averages and records for this station are not official NWS values.
T = Trace of Precipitation, MM = Missing Value Source: NWS Daily Summary

Daily Weather History Graph

Daily Weather History Graph

Search for Another Location

Airport:

Trip Planner

Search our weather history database for the weather conditions in past years. The results will help you decide how hot, cold, wet, or windy it might be!

Date:

Astronomy

Apr. 09, 2013 Rise Set
Actual Time 7:03 AM EDT 8:05 PM EDT
Civil Twilight 6:35 AM EDT 8:32 PM EDT
Nautical Twilight 6:03 AM EDT 9:05 PM EDT
Astronomical Twilight 5:28 AM EDT 9:40 PM EDT
Moon 6:25 AM EDT (4/9) 7:39 PM EDT (4/9)
Length of Visible Light 13h 56m
Length of Day
13h 01m
Waning Crescent, 1% of the Moon is Illuminated
Apr 9
Waning Crescent
Apr 10
New
Apr 18
First Quarter
Apr 25
Full
May 2
Last Quarter

Hourly Weather History & Observations

Time (EDT) Temp. Heat Index Dew Point Humidity Pressure Visibility Wind Dir Wind Speed Gust Speed Precip Events Conditions
12:15 AM 16.2 °C - 11.7 °C 75% 1015.5 hPa 16.1 km SW 20.4 km/h / 5.7 m/s - N/A   Clear
12:35 AM 16.5 °C - 11.6 °C 73% 1015.8 hPa 16.1 km SW 18.5 km/h / 5.1 m/s - N/A   Clear
12:55 AM 16.5 °C - 11.7 °C 73% 1016.1 hPa 16.1 km WSW 16.7 km/h / 4.6 m/s - N/A   Clear
1:15 AM 17.0 °C - 11.6 °C 70% 1016.1 hPa 16.1 km WSW 16.7 km/h / 4.6 m/s 25.9 km/h / 7.2 m/s N/A   Clear
1:35 AM 17.0 °C - 11.5 °C 70% 1016.1 hPa 16.1 km WSW 18.5 km/h / 5.1 m/s 25.9 km/h / 7.2 m/s N/A   Clear
1:55 AM 17.0 °C - 11.5 °C 70% 1016.1 hPa 16.1 km WSW 14.8 km/h / 4.1 m/s - N/A   Clear
2:15 AM 17.2 °C - 11.6 °C 70% 1016.1 hPa 16.1 km WSW 16.7 km/h / 4.6 m/s - N/A   Mostly Cloudy
2:35 AM 16.9 °C - 11.6 °C 71% 1016.1 hPa 16.1 km WSW 11.1 km/h / 3.1 m/s - N/A   Overcast
2:55 AM 16.9 °C - 11.6 °C 71% 1016.1 hPa 16.1 km WSW 9.3 km/h / 2.6 m/s - N/A   Overcast
3:15 AM 16.7 °C - 11.5 °C 71% 1016.5 hPa 16.1 km Calm Calm - N/A   Overcast
3:35 AM 16.1 °C - 11.5 °C 74% 1016.8 hPa 16.1 km NW 5.6 km/h / 1.5 m/s - N/A   Overcast
3:55 AM 15.7 °C - 11.5 °C 76% 1016.8 hPa 16.1 km Calm Calm - N/A   Overcast
4:15 AM 15.6 °C - 11.5 °C 77% 1017.2 hPa 16.1 km Calm Calm - N/A   Overcast
4:35 AM 15.3 °C - 11.5 °C 78% 1017.2 hPa 16.1 km South 5.6 km/h / 1.5 m/s - N/A   Overcast
4:55 AM 13.9 °C - 11.0 °C 83% 1017.2 hPa 16.1 km South 5.6 km/h / 1.5 m/s - N/A   Overcast
5:15 AM 14.3 °C - 11.1 °C 81% 1017.5 hPa 16.1 km North 9.3 km/h / 2.6 m/s - N/A   Overcast
5:35 AM 13.4 °C - 11.2 °C 87% 1017.5 hPa 16.1 km North 7.4 km/h / 2.1 m/s - N/A   Overcast
5:55 AM 12.7 °C - 10.9 °C 89% 1017.5 hPa 16.1 km Calm Calm - N/A   Overcast
6:15 AM 11.8 °C - 10.3 °C 91% 1017.5 hPa 16.1 km South 5.6 km/h / 1.5 m/s - N/A   Scattered Clouds
6:35 AM 11.5 °C - 10.6 °C 94% 1017.8 hPa 16.1 km South 5.6 km/h / 1.5 m/s - N/A   Clear
6:55 AM 11.1 °C - 10.6 °C 97% 1017.8 hPa 16.1 km Calm Calm - N/A   Clear
7:15 AM 10.6 °C - 10.0 °C 96% 1018.2 hPa 11.3 km Calm Calm - N/A   Clear
7:16 AM 11.0 °C - 10.0 °C 94% 1018.2 hPa 16.1 km Calm Calm - N/A   Clear
8:50 AM 15.0 °C - 12.0 °C 82% 1018.8 hPa 16.1 km SE 5.6 km/h / 1.5 m/s - N/A   Scattered Clouds
9:50 AM 17.0 °C - 12.0 °C 72% 1018.5 hPa 16.1 km SE 11.1 km/h / 3.1 m/s - N/A   Scattered Clouds
10:50 AM 20.0 °C - 12.0 °C 60% 1017.8 hPa 16.1 km SSE 18.5 km/h / 5.1 m/s - N/A   Clear
11:50 AM 23.0 °C - 13.0 °C 53% 1017.5 hPa 16.1 km SSW 16.7 km/h / 4.6 m/s - N/A   Mostly Cloudy
12:50 PM 24.0 °C - 13.0 °C 50% 1016.1 hPa 16.1 km SSW 20.4 km/h / 5.7 m/s 37.0 km/h / 10.3 m/s N/A   Scattered Clouds
2:50 PM 28.0 °C 27.8 °C 14.0 °C 42% 1014.8 hPa 16.1 km SSW 38.9 km/h / 10.8 m/s 53.7 km/h / 14.9 m/s N/A   Scattered Clouds
7:35 PM 24.2 °C - 11.7 °C 45% 1013.8 hPa 16.1 km SSW 22.2 km/h / 6.2 m/s - N/A   Clear
7:55 PM 23.3 °C - 12.0 °C 49% 1013.8 hPa 16.1 km SSW 20.4 km/h / 5.7 m/s 25.9 km/h / 7.2 m/s N/A   Clear
8:15 PM 22.7 °C - 12.1 °C 51% 1013.8 hPa 16.1 km SSW 16.7 km/h / 4.6 m/s - N/A   Clear
8:35 PM 21.7 °C - 12.2 °C 55% 1014.1 hPa 16.1 km SSW 14.8 km/h / 4.1 m/s - N/A   Clear
8:55 PM 20.9 °C - 12.1 °C 57% 1014.1 hPa 16.1 km SSW 16.7 km/h / 4.6 m/s - N/A   Clear
9:15 PM 20.9 °C - 12.1 °C 57% 1014.4 hPa 16.1 km SSW 18.5 km/h / 5.1 m/s 25.9 km/h / 7.2 m/s N/A   Clear
9:35 PM 19.6 °C - 12.0 °C 61% 1014.4 hPa 16.1 km SSW 13.0 km/h / 3.6 m/s - N/A   Clear
9:55 PM 19.1 °C - 11.9 °C 63% 1014.4 hPa 16.1 km SSW 13.0 km/h / 3.6 m/s - N/A   Clear
10:15 PM 18.6 °C - 11.9 °C 65% 1014.4 hPa 16.1 km SSW 13.0 km/h / 3.6 m/s - N/A   Clear
10:55 PM 18.1 °C - 12.0 °C 68% 1014.4 hPa - SSW 13.0 km/h / 3.6 m/s - N/A   Clear
11:15 PM 18.1 °C - 12.2 °C 68% 1014.4 hPa - SSW 14.8 km/h / 4.1 m/s - N/A   Clear
11:35 PM 19.5 °C - 12.8 °C 65% 1014.4 hPa - SSW 20.4 km/h / 5.7 m/s - N/A   Clear
11:55 PM 19.1 °C - 12.8 °C 67% 1014.4 hPa - SSW 18.5 km/h / 5.1 m/s - N/A   Clear